Weather History for Raton, NM

Change the Weather History Date:

Friday, October 7, 2011

  Actual Average (KTAD) Record (KTAD)
Temperature  
Mean Temperature 54 °F 56 °F  
Max Temperature 68 °F 71 °F 86 °F (1979)
Min Temperature 43 °F 40 °F 22 °F (1948)
Degree Days  
Heating Degree Days 12 10  
Month to date heating degree days 61  
Since 1 July heating degree days 171  
Cooling Degree Days 0 0  
Month to date cooling degree days 0  
Year to date cooling degree days 716  
Growing Degree Days 4 (Base 50)    
Moisture  
Dew Point 37 °F    
Average Humidity 54    
Maximum Humidity 86    
Minimum Humidity 35    
Precipitation  
Precipitation 0.02 in 0.02 in 0.12 in (1970)
Month to date precipitation 0.18  
Year to date precipitation 11.88  
Sea Level Pressure  
Sea Level Pressure 29.72 in    
Wind  
Wind Speed 12 mph (SW)    
Max Wind Speed 32 mph    
Max Gust Speed 41 mph    
Visibility 10 miles    
Events Rain    
T = Trace of Precipitation, MM = Missing Value Source: NWS Daily Summary

Daily Weather History Graph

Daily Weather History Graph

Search for Another Location

Airport:

Trip Planner

Search our weather history database for the weather conditions in past years. The results will help you decide how hot, cold, wet, or windy it might be!

Date:

Astronomy

Oct. 07, 2011 Rise Set
Actual Time 6:58 AM MDT 6:32 PM MDT
Civil Twilight 6:32 AM MDT 6:58 PM MDT
Nautical Twilight 6:02 AM MDT 7:28 PM MDT
Astronomical Twilight 5:32 AM MDT 7:58 PM MDT
Moon 4:12 PM MDT (10/7) 2:55 AM MDT (10/7)
Length of Visible Light 12h 26m
Length of Day
11h 34m
Waxing Gibbous, 84% of the Moon is Illuminated
Oct 7
Waxing Gibbous
Oct 11
Full
Oct 19
Last Quarter
Oct 26
New
Nov 2
First Quarter

Hourly Weather History & Observations

Time (MDT) Temp. Windchill Dew Point Humidity Pressure Visibility Wind Dir Wind Speed Gust Speed Precip Events Conditions
12:53 AM 53.1 °F - 33.1 °F 47% 29.63 in 10.0 mi West 12.7 mph - N/A   Mostly Cloudy
1:53 AM 54.0 °F - 32.0 °F 43% 29.65 in 10.0 mi West 12.7 mph - N/A   Overcast
2:53 AM 54.0 °F - 32.0 °F 43% 29.65 in 10.0 mi WSW 11.5 mph - N/A   Overcast
3:53 AM 52.0 °F - 30.9 °F 45% 29.66 in 10.0 mi West 13.8 mph 21.9 mph N/A   Clear
4:53 AM 51.1 °F - 30.9 °F 46% 29.67 in 10.0 mi West 12.7 mph - N/A   Clear
5:53 AM 50.0 °F - 30.0 °F 46% 29.70 in 10.0 mi West 6.9 mph - N/A   Clear
6:53 AM 43.0 °F 38.8 °F 30.9 °F 62% 29.77 in 10.0 mi NE 6.9 mph - N/A   Scattered Clouds
7:53 AM 48.0 °F - 32.0 °F 54% 29.78 in 10.0 mi NNE 6.9 mph - N/A   Clear
8:53 AM 55.0 °F - 33.1 °F 43% 29.78 in 10.0 mi NE 3.5 mph - N/A   Clear
9:53 AM 60.1 °F - 32.0 °F 35% 29.77 in 10.0 mi Variable 4.6 mph - N/A   Clear
10:53 AM 62.1 °F - 34.0 °F 35% 29.76 in 10.0 mi South 8.1 mph - N/A   Clear
11:53 AM 64.9 °F - 37.0 °F 36% 29.74 in 10.0 mi South 16.1 mph 21.9 mph N/A   Overcast
12:53 PM 62.1 °F - 37.9 °F 41% 29.73 in 10.0 mi South 17.3 mph 23.0 mph N/A   Overcast
1:53 PM 62.1 °F - 37.0 °F 39% 29.71 in 10.0 mi SSW 31.1 mph 36.8 mph N/A   Overcast
2:53 PM 62.1 °F - 35.1 °F 37% 29.70 in 10.0 mi SSW 27.6 mph 38.0 mph N/A   Overcast
3:53 PM 60.1 °F - 39.9 °F 47% 29.73 in 10.0 mi South 24.2 mph 34.5 mph 0.00 in   Overcast
4:53 PM 60.1 °F - 41.0 °F 49% 29.74 in 10.0 mi South 32.2 mph 41.4 mph N/A   Overcast
5:53 PM 51.1 °F - 46.0 °F 83% 29.77 in 5.0 mi SW 21.9 mph 34.5 mph 0.02 in Rain Light Rain
6:53 PM 53.1 °F - 46.9 °F 80% 29.78 in 10.0 mi SSW 3.5 mph - 0.00 in Rain Light Rain
7:53 PM 53.1 °F - 46.9 °F 80% 29.75 in 10.0 mi SE 9.2 mph - 0.00 in Rain Light Rain
8:53 PM 50.0 °F - 46.0 °F 86% 29.72 in 10.0 mi West 6.9 mph - 0.00 in   Mostly Cloudy
9:53 PM 48.9 °F - 43.0 °F 80% 29.70 in 10.0 mi Calm Calm - N/A   Scattered Clouds
10:53 PM 48.0 °F - 37.9 °F 68% 29.73 in 10.0 mi North 5.8 mph - N/A   Overcast
11:53 PM 48.0 °F - 39.0 °F 71% 29.70 in 10.0 mi ENE 5.8 mph - 0.00 in Rain Light Rain